Date String (YYYY-MM-DD hh:mm:ss) UTC,Instrument flags,Ambient pressure (hPa),Sample flow (lpm),Bypass flow (lpm),Sample temperature (°C),Ambient temperature (°C),ASC tube jacket temperature (°C),LED temperature (°C),Box temperature (°C),Sample RH (%),Span deviation,Mass concentration (μg/m³),Mass concentration (μg/m³),Mass concentration (μg/m³)
DateTimeUTC,F1_M11,P_M11,Q1_M11,Q2_M11,T1_M11,T2_M11,T3_M11,T4_M11,T5_M11,U1_M11,ZSPAN_M11,X2_M11,X0_M11,X1_M11
2021-10-24 10:00:00,,0818.2,5.01,0.00,28.2,27.3,00.0,37.4,29.9,14.5,0000.0,0005.88,0018.04,0003.83
2021-10-24 10:01:00,,0818.1,4.99,0.00,28.2,27.3,00.0,37.4,30.0,14.5,0000.0,0005.85,0017.93,0003.82
2021-10-24 10:02:00,,0818.0,5.00,0.00,28.2,27.3,00.0,37.4,30.0,14.5,0000.0,0005.79,0018.07,0003.80
2021-10-24 10:03:00,,0818.0,5.00,0.00,28.2,27.3,00.0,37.4,30.0,14.5,0000.0,0005.76,0018.33,0003.78
2021-10-24 10:04:00,,0817.9,5.00,0.00,28.2,27.3,00.0,37.4,30.0,14.4,0000.0,0005.70,0017.71,0003.77
2021-10-24 10:05:00,,0817.7,5.00,0.00,28.2,27.3,00.0,37.4,30.0,14.4,0000.0,0005.54,0016.64,0003.72
2021-10-24 10:06:00,,0817.7,4.99,0.00,28.2,27.3,00.0,37.4,30.0,14.4,0000.0,0005.42,0016.29,0003.69
2021-10-24 10:07:00,,0817.7,5.01,0.00,28.2,27.3,00.0,37.4,30.0,14.6,0000.0,0005.39,0016.43,0003.67
2021-10-24 10:08:00,,0817.9,4.99,0.00,28.2,27.3,00.0,37.4,30.0,14.8,0000.0,0005.44,0017.18,0003.67
2021-10-24 10:09:00,,0817.8,5.00,0.00,28.2,27.3,00.0,37.4,30.0,14.6,0000.0,0005.46,0018.03,0003.66
2021-10-24 10:10:00,,0817.9,5.01,0.00,28.2,27.3,00.0,37.4,30.0,14.6,0000.0,0005.43,0017.90,0003.66
2021-10-24 10:11:00,,0817.9,5.00,0.00,28.2,27.3,00.0,37.4,30.0,14.6,0000.0,0005.43,0019.12,0003.67
2021-10-24 10:12:00,,0818.0,4.99,0.00,28.2,27.3,00.0,37.3,29.9,14.6,0000.0,0005.42,0018.99,0003.69
2021-10-24 10:13:00,,0818.0,5.00,0.00,28.2,27.2,00.0,37.3,29.9,14.7,0000.0,0005.44,0018.91,0003.70
2021-10-24 10:14:00,,0818.0,5.02,0.00,28.2,27.2,00.0,37.3,29.9,14.7,0000.0,0005.43,0017.27,0003.70
2021-10-24 10:15:00,,0818.0,5.00,0.00,28.2,27.2,00.0,37.3,29.9,14.8,0000.0,0005.47,0016.99,0003.71
2021-10-24 10:16:00,,0818.0,5.00,0.00,28.2,27.3,00.0,37.3,30.0,15.0,0000.0,0005.59,0017.63,0003.75
2021-10-24 10:17:00,,0817.9,4.99,0.00,28.2,27.3,00.0,37.3,30.0,15.0,0000.0,0005.67,0017.75,0003.78
2021-10-24 10:18:00,,0817.9,5.00,0.00,28.2,27.3,00.0,37.3,29.9,15.1,0000.0,0005.72,0018.04,0003.81
2021-10-24 10:19:00,,0817.8,5.00,0.00,28.2,27.3,00.0,37.3,30.0,15.3,0000.0,0005.72,0018.06,0003.84
2021-10-24 10:20:00,,0817.9,5.02,0.00,28.2,27.3,00.0,37.3,30.0,15.5,0000.0,0005.74,0018.11,0003.89
2021-10-24 10:21:00,,0817.9,4.99,0.00,28.2,27.3,00.0,37.3,30.0,15.8,0000.0,0005.81,0019.31,0003.93
2021-10-24 10:22:00,,0817.9,4.99,0.00,28.1,27.3,00.0,37.3,29.9,16.0,0000.0,0005.90,0018.68,0003.99
2021-10-24 10:23:00,,0818.0,5.02,0.00,28.1,27.2,00.0,37.3,29.9,16.0,0000.0,0006.02,0018.54,0004.03
2021-10-24 10:24:00,,0818.0,5.00,0.00,28.1,27.2,00.0,37.3,29.9,16.3,0000.0,0006.12,0018.49,0004.10
2021-10-24 10:25:00,,0818.0,5.00,0.00,28.1,27.2,00.0,37.3,29.9,16.3,0000.0,0006.29,0019.76,0004.18
2021-10-24 10:26:00,,0818.0,5.00,0.00,28.1,27.2,00.0,37.3,29.9,16.1,0000.0,0006.33,0020.18,0004.24
2021-10-24 10:27:00,,0818.0,5.00,0.00,28.1,27.3,00.0,37.3,29.9,16.0,0000.0,0006.38,0020.34,0004.29
2021-10-24 10:28:00,,0818.0,4.99,0.00,28.1,27.3,00.0,37.3,29.9,15.9,0000.0,0006.46,0021.18,0004.32
2021-10-24 10:29:00,,0818.0,5.00,0.00,28.1,27.3,00.0,37.3,29.9,15.9,0000.0,0006.56,0021.59,0004.35
2021-10-24 10:30:00,,0818.0,5.01,0.00,28.1,27.3,00.0,37.3,29.9,16.1,0000.0,0006.62,0021.27,0004.39
2021-10-24 10:31:00,,0818.0,5.00,0.00,28.2,27.3,00.0,37.3,29.9,16.1,0000.0,0006.68,0020.73,0004.41
2021-10-24 10:32:00,,0818.0,4.99,0.00,28.2,27.3,00.0,37.3,29.9,16.1,0000.0,0006.75,0020.23,0004.45
2021-10-24 10:33:00,,0818.0,5.01,0.00,28.2,27.3,00.0,37.3,30.0,16.1,0000.0,0006.78,0021.48,0004.47
2021-10-24 10:34:00,,0818.0,4.99,0.00,28.2,27.3,00.0,37.3,30.0,16.1,0000.0,0006.75,0021.09,0004.51
2021-10-24 10:35:00,,0818.2,4.99,0.00,28.2,27.3,00.0,37.3,30.0,16.2,0000.0,0006.77,0021.31,0004.53
2021-10-24 10:36:00,,0818.2,4.99,0.00,28.2,27.3,00.0,37.3,30.0,16.2,0000.0,0006.85,0021.66,0004.57
2021-10-24 10:37:00,,0818.4,5.01,0.00,28.2,27.3,00.0,37.3,30.0,16.2,0000.0,0006.98,0022.10,0004.62
2021-10-24 10:38:00,,0818.4,5.00,0.00,28.2,27.3,00.0,37.3,30.0,16.2,0000.0,0007.04,0021.92,0004.69
2021-10-24 10:39:00,,0818.4,5.01,0.00,28.2,27.3,00.0,37.3,30.0,16.2,0000.0,0007.09,0021.18,0004.75
2021-10-24 10:40:00,,0818.4,5.01,0.00,28.2,27.3,00.0,37.3,30.0,16.1,0000.0,0007.08,0022.18,0004.79
2021-10-24 10:41:00,,0818.4,4.99,0.00,28.2,27.3,00.0,37.3,30.0,15.9,0000.0,0007.12,0023.19,0004.81
2021-10-24 10:42:00,,0818.5,5.00,0.00,28.2,27.3,00.0,37.3,30.0,15.8,0000.0,0007.12,0023.70,0004.82
2021-10-24 10:43:00,,0818.6,5.00,0.00,28.2,27.3,00.0,37.3,30.0,15.8,0000.0,0007.08,0024.19,0004.84
2021-10-24 10:44:00,,0818.7,5.00,0.00,28.2,27.3,00.0,37.3,30.0,15.7,0001.4,0007.08,0024.17,0004.84
2021-10-24 10:45:00,,0818.7,4.99,0.00,28.2,27.3,00.0,37.3,30.0,15.7,0000.4,0007.12,0025.49,0004.83
2021-10-24 10:46:00,,0818.8,5.02,0.00,28.2,27.3,00.0,37.3,30.0,15.6,0000.6,0007.09,0026.52,0004.80
2021-10-24 10:47:00,,0818.8,5.00,0.00,28.2,27.3,00.0,37.3,30.0,15.4,0000.0,0006.95,0025.96,0004.74
2021-10-24 10:48:00,,0818.7,5.01,0.00,28.2,27.3,00.0,37.3,29.9,15.1,0000.0,0006.79,0025.27,0004.65
2021-10-24 10:49:00,,0818.7,5.00,0.00,28.2,27.3,00.0,37.3,30.0,14.8,0000.0,0006.63,0026.05,0004.54
2021-10-24 10:50:00,,0818.7,5.00,0.00,28.2,27.3,00.0,37.3,29.9,14.5,0000.0,0006.43,0025.82,0004.40
2021-10-24 10:51:00,,0818.6,4.99,0.00,28.2,27.3,00.0,37.3,30.0,14.2,0000.0,0006.24,0024.03,0004.25
2021-10-24 10:52:00,,0818.6,5.01,0.00,28.2,27.3,00.0,37.3,30.0,14.1,0000.0,0006.13,0022.33,0004.12
2021-10-24 10:53:00,,0818.7,4.99,0.00,28.2,27.3,00.0,37.3,30.0,14.0,0000.0,0006.01,0021.37,0003.98
2021-10-24 10:54:00,,0818.7,5.01,0.00,28.2,27.3,00.0,37.3,30.0,13.9,0000.0,0005.80,0019.81,0003.82
2021-10-24 10:55:00,,0818.7,5.00,0.00,28.2,27.3,00.0,37.3,30.0,13.8,0000.0,0005.54,0017.55,0003.66
2021-10-24 10:56:00,,0818.7,5.01,0.00,28.2,27.3,00.0,37.3,30.0,13.7,0000.0,0005.30,0016.28,0003.50
2021-10-24 10:57:00,,0818.8,4.99,0.00,28.2,27.3,00.0,37.3,30.0,13.7,0000.0,0005.08,0014.84,0003.36
2021-10-24 10:58:00,,0818.8,4.98,0.00,28.2,27.3,00.0,37.3,30.0,13.8,0000.0,0004.90,0014.68,0003.24
2021-10-24 10:59:00,,0818.9,5.00,0.00,28.2,27.2,00.0,37.3,29.9,13.8,0000.0,0004.76,0013.72,0003.15
